ZHONGXING-6B

Last updated on Sat Apr 13 2024 01:02:37 GMT+0100 (British Summer Time)

1 31800U 07031A 24103.64749870 -.00000370 00000+0 00000+0 0 9997 2 31800 0.3469 92.0369 0003661 276.4955 181.4036 1.00270333 61457
UTC large
Height (km)
Speed (km/s)
/
Latitude / Longitude
Inclination (degrees)
Orbital Period (minutes)
Azimuth
Elevation
Range (km)
Doppler Factor

Next 0 passes for location: London (51.5072 / 0.1276)

Sorry there are no passes over London.